Theta_e
317 316 316 317 317 317 316 317 317 318 318 319 318 319 319 319 320 320 321 321 321 322 323 323 325 325 325 326 326 324 321 306 301 304 304 305 322 333 338 334 333 335 323 299 300 300 300 295 298 296 296 295 296 297 297 296 293 290 285 282 284 281 284 287 288 288 287 289 290 291 290 291 291 293 296 295 294 292 293 294 293 295 298 296 296 297 299 304
316 316 316 316 316 316 316 316 317 316 317 318 318 318 318 319 319 320 321 321 321 321 322 323 323 325 326 325 325 325 312 307 302 300 303 325 338 334 338 334 336 331 321 301 300 296 299 297 297 293 295 295 296 298 295 296 293 286 282 280 284 283 287 289 287 289 290 293 290 290 288 291 292 292 295 293 291 291 294 294 292 294 295 300 300 299 306 312
316 316 315 315 316 316 315 315 316 316 317 317 318 318 318 318 319 320 320 320 321 321 322 324 324 324 325 325 323 323 309 299 297 298 303 327 335 339 337 334 330 325 304 305 301 299 302 300 298 295 291 293 292 296 292 295 295 288 286 288 281 285 287 287 287 290 290 290 290 290 291 291 292 293 293 294 290 290 292 291 293 293 295 297 299 300 306 313
315 315 315 314 315 315 315 315 316 316 316 316 317 317 317 318 318 319 320 320 320 322 322 323 324 324 324 324 323 315 299 296 294 297 304 331 336 338 338 334 326 313 303 301 299 298 294 295 292 296 294 289 290 290 291 292 293 289 285 281 290 286 292 293 287 289 288 290 290 289 290 292 292 291 293 289 292 291 290 290 295 295 294 297 297 297 300 308
315 314 314 314 314 315 314 314 314 315 316 316 317 317 317 318 318 318 319 320 320 321 322 323 324 325 324 323 318 310 295 290 294 299 305 331 330 337 335 333 325 299 303 298 299 296 295 296 294 290 293 295 287 289 290 290 289 286 289 287 288 286 292 293 288 288 288 288 289 288 292 292 292 293 290 291 291 290 292 293 293 293 295 298 299 298 298 305
314 314 314 314 314 314 314 316 316 315 316 317 317 318 318 318 318 318 318 319 320 321 322 323 323 323 324 321 309 301 296 286 297 301 327 330 329 327 329 331 325 298 299 297 299 295 300 296 295 291 288 287 289 289 291 290 292 292 290 287 286 286 292 291 290 289 288 289 289 289 292 292 292 292 288 290 293 291 290 291 290 292 294 299 299 298 300 302
313 313 313 314 314 314 315 314 315 314 317 317 318 317 318 318 318 318 318 319 320 321 322 323 323 324 322 319 302 296 295 294 299 307 326 331 327 326 324 315 314 298 300 300 296 299 291 293 291 289 289 290 288 290 292 291 289 286 291 288 292 287 292 290 292 287 287 290 290 289 292 293 290 293 289 289 292 289 289 291 292 291 296 299 299 298 301 302
313 313 314 314 313 313 313 315 314 315 317 318 318 318 318 318 318 318 318 319 319 320 322 322 323 323 321 300 304 293 295 297 303 307 322 326 309 306 320 303 301 300 301 298 300 297 295 294 293 289 287 290 292 292 291 295 290 291 291 291 291 289 288 289 288 287 287 288 289 290 293 292 289 290 290 290 293 292 293 294 295 296 297 296 298 298 297 298
315 315 314 314 313 313 314 314 314 315 316 317 318 318 318 318 318 318 318 318 319 320 321 322 322 322 320 297 293 293 290 299 308 311 310 302 301 301 303 307 300 301 297 296 295 299 298 293 293 292 293 290 293 294 290 293 290 291 293 290 290 292 289 289 292 290 288 290 290 293 290 288 289 290 292 295 290 291 293 294 295 296 296 296 297 297 297 297
317 316 314 313 313 313 313 314 315 316 316 317 317 318 317 318 318 318 318 318 319 320 321 322 322 319 302 298 290 288 294 306 308 310 304 301 300 301 302 301 298 300 303 299 297 297 299 293 297 295 293 292 292 292 291 292 292 290 291 290 292 291 290 291 293 290 289 292 290 292 290 291 290 291 292 290 291 292 294 293 293 295 296 295 296 296 295 297
315 316 316 315 314 313 313 314 314 316 317 317 318 318 317 318 318 318 318 318 319 320 321 321 321 311 300 293 289 287 302 310 310 306 303 302 300 301 303 301 301 299 300 298 298 299 297 295 295 294 297 294 293 291 291 294 291 290 291 291 291 288 290 289 290 290 291 295 288 292 290 288 290 290 293 294 292 293 293 293 293 293 294 295 294 295 295 295
316 315 315 316 316 315 314 314 314 315 316 317 318 318 318 318 318 318 318 318 319 320 321 321 318 304 292 291 288 291 301 309 307 304 304 303 303 303 302 301 302 303 303 300 301 301 299 297 296 296 294 296 292 292 293 292 293 291 292 294 290 287 293 291 292 290 291 293 289 290 291 289 288 289 293 289 292 292 292 292 292 292 292 292 292 294 294 296
317 316 315 315 316 314 314 314 315 316 317 318 319 318 318 318 318 318 318 318 320 320 321 321 312 302 298 292 292 297 299 301 306 305 304 303 302 300 300 299 300 301 301 300 300 303 298 294 295 297 294 292 291 292 293 292 290 292 290 289 290 285 287 290 290 289 291 293 287 291 286 285 288 294 291 291 291 291 292 291 291 291 290 290 290 293 294 294
317 316 316 316 315 314 314 314 315 316 317 319 319 318 318 319 319 319 319 318 320 321 321 319 309 295 292 288 297 304 306 305 306 305 304 303 303 304 302 301 299 297 300 300 299 297 298 296 298 296 295 294 293 296 293 288 289 292 290 285 284 285 283 288 289 289 291 291 289 292 286 288 288 288 288 288 291 292 292 292 291 291 291 290 291 292 294 295
318 317 316 315 315 314 314 314 315 316 316 318 319 319 319 319 319 319 320 320 321 321 320 315 304 298 291 292 299 306 320 307 308 305 304 304 302 303 303 300 301 297 298 299 299 298 297 299 297 292 294 293 295 294 287 285 285 285 287 283 278 284 282 285 289 289 291 291 289 292 286 290 293 293 289 289 290 290 292 291 291 290 291 291 291 292 294 295
318 317 316 315 315 315 314 314 314 315 316 317 318 319 319 319 319 320 320 320 321 318 307 308 300 292 289 291 302 316 306 304 306 305 303 303 303 303 301 299 299 299 298 299 299 298 298 299 295 293 293 294 289 285 283 285 285 280 285 281 284 283 281 288 289 287 289 290 290 291 289 285 289 288 287 289 290 289 289 290 290 290 290 291 292 293 293 294
318 317 317 316 316 315 315 314 314 314 315 317 318 318 319 320 320 320 320 319 310 309 307 302 297 297 291 295 305 300 299 302 304 305 304 303 302 301 298 298 297 299 297 300 299 300 298 296 293 293 289 288 285 284 284 280 281 282 282 284 279 284 283 284 286 289 287 290 289 288 287 289 290 288 288 290 290 289 290 291 291 291 291 291 292 292 293 293
318 317 317 317 316 316 316 315 314 314 315 317 317 318 316 320 319 317 312 307 306 303 302 303 296 292 293 295 294 297 300 303 304 303 301 301 298 298 298 297 295 294 294 298 297 296 295 295 290 290 288 284 289 284 282 280 283 280 285 284 285 283 283 285 285 290 289 288 288 287 286 289 292 293 289 289 290 289 291 292 292 291 291 291 291 292 293 293
319 318 318 317 317 316 317 317 315 315 315 318 319 318 318 318 305 304 304 300 296 293 291 293 291 286 284 291 295 302 303 305 303 304 304 303 300 298 298 296 296 299 293 293 295 296 291 292 291 287 288 286 289 290 287 287 283 282 284 282 281 285 283 284 286 286 289 287 286 285 288 290 291 292 294 289 289 289 291 290 290 290 290 291 291 292 292 293
319 319 318 317 317 317 317 317 316 315 316 314 311 305 300 299 291 297 296 302 295 290 291 290 295 292 298 295 300 303 305 303 303 300 303 302 302 298 297 296 296 293 293 292 291 292 292 288 286 286 289 290 289 291 291 286 286 285 283 282 283 283 284 285 285 286 286 288 286 289 288 288 290 291 293 290 287 288 289 290 291 291 292 291 291 292 293 293
319 319 318 318 318 318 317 317 316 315 318 312 311 298 290 293 287 285 291 298 297 297 297 298 295 294 298 300 298 301 300 299 300 301 303 303 299 301 296 295 291 292 288 289 292 292 290 287 287 290 292 289 290 289 286 286 286 288 284 285 285 283 286 287 289 289 287 288 283 283 284 287 289 291 292 289 286 289 290 290 291 292 292 292 292 292 292 293
319 319 319 318 318 318 318 317 317 316 318 314 308 299 302 297 294 298 295 293 295 298 299 298 297 299 299 300 301 300 298 296 300 302 303 302 300 298 294 292 288 292 288 289 290 289 287 288 290 292 288 288 287 288 287 288 287 285 287 284 284 284 284 287 287 286 287 287 286 285 287 289 289 290 291 290 290 291 292 292 294 294 293 292 292 293 292 291
319 319 319 318 318 318 318 317 316 317 313 310 306 304 303 307 303 299 296 291 293 296 296 296 296 296 297 299 300 301 299 293 295 298 301 301 296 296 293 291 290 287 288 290 290 284 285 285 292 289 288 289 286 285 287 287 286 285 283 285 285 283 285 284 284 286 288 288 284 282 285 288 288 290 290 292 292 291 291 292 293 294 293 293 294 294 293 292
319 319 319 318 319 318 318 317 317 314 311 310 307 303 304 304 302 303 300 292 289 294 296 296 298 295 296 297 300 301 296 295 295 297 301 299 297 293 294 290 288 288 290 290 291 289 289 288 289 290 289 290 287 285 286 286 286 283 286 284 284 285 285 287 285 285 285 286 284 285 287 289 289 290 291 292 287 289 293 292 291 292 292 294 293 291 293 293
318 318 319 318 318 319 317 317 311 307 309 310 308 311 306 302 306 303 299 290 286 289 297 297 298 296 298 302 302 302 297 295 294 298 302 300 293 294 292 291 289 288 288 289 289 287 288 289 288 289 288 288 286 284 286 287 284 282 284 288 288 287 287 284 284 287 284 281 283 284 281 279 280 287 289 289 286 289 289 290 292 294 294 292 291 292 291 292
318 318 318 318 318 318 318 308 306 310 308 305 306 309 312 307 305 304 290 282 282 284 293 290 300 296 303 297 301 297 298 294 295 298 302 300 302 296 293 292 290 290 288 288 289 287 289 289 291 288 288 286 286 285 284 288 286 284 284 286 289 288 286 286 285 286 279 279 284 283 283 280 282 286 287 285 285 289 291 289 292 293 293 291 292 292 291 291
318 318 318 318 319 318 308 301 309 310 303 304 309 307 307 307 306 305 290 279 278 289 289 293 294 293 303 296 301 293 285 286 298 300 301 301 300 299 294 290 289 289 290 288 286 287 288 289 288 286 286 286 285 284 287 289 287 282 283 283 286 286 286 285 284 286 282 280 283 282 280 282 285 287 289 291 290 290 290 293 294 295 294 292 291 291 290 291
318 318 318 319 319 316 307 309 308 305 305 307 306 309 307 307 306 298 286 274 273 293 289 290 295 301 300 300 299 295 288 294 293 297 298 299 299 296 293 289 292 290 289 289 285 286 289 286 286 286 285 284 286 286 285 290 287 283 286 283 284 286 284 284 285 282 282 281 281 282 284 283 281 282 285 286 287 287 291 293 295 296 294 291 291 291 290 291
318 318 318 318 318 317 313 309 308 305 309 304 309 309 309 308 299 289 281 273 285 287 302 293 304 299 294 298 295 291 292 291 290 293 297 299 299 295 291 289 290 290 290 292 290 286 286 288 290 291 289 287 285 283 287 291 288 286 284 285 283 282 281 280 281 284 280 278 280 282 283 278 285 282 286 283 286 287 291 294 296 296 292 290 290 290 290 289
319 318 318 318 317 314 311 311 309 311 307 309 310 310 310 303 292 286 278 272 293 285 293 294 294 290 293 293 291 292 292 290 291 295 295 295 296 295 295 292 291 289 290 291 288 285 288 290 290 289 288 288 285 285 286 289 287 287 285 287 284 281 280 278 279 278 280 276 283 283 284 284 282 282 286 287 288 290 293 292 293 293 288 288 288 288 288 288
318 319 318 318 312 312 311 305 310 310 309 311 311 310 305 296 285 280 275 282 291 291 291 291 289 294 292 290 289 288 290 289 293 295 293 295 294 292 292 292 291 287 285 285 287 285 289 288 289 289 289 287 288 287 285 284 285 287 286 282 286 285 278 278 273 275 274 276 281 280 284 285 280 279 282 287 286 285 290 291 292 291 289 288 287 287 287 287
318 318 319 316 316 315 307 304 311 312 311 312 310 305 298 285 289 279 279 293 285 288 290 287 289 291 291 292 290 290 291 290 292 294 293 291 290 292 292 289 289 281 281 285 284 283 285 287 285 289 289 290 286 287 286 284 288 286 286 287 281 274 272 273 272 275 273 278 279 278 282 281 283 288 283 285 290 290 288 291 293 292 292 291 287 286 286 287
317 317 318 317 315 312 312 312 313 313 311 311 307 300 290 283 278 285 285 288 285 290 288 288 288 290 291 290 288 289 289 289 290 291 291 289 291 292 291 290 290 287 281 284 284 282 283 283 285 288 289 289 291 288 283 284 287 285 287 283 279 273 273 269 267 264 270 276 278 281 282 282 281 286 292 294 294 294 291 290 291 292 292 292 289 286 286 286
317 317 315 316 316 315 313 312 313 313 310 308 303 294 289 281 281 293 289 291 290 288 288 285 288 288 291 289 289 291 286 287 290 290 291 289 289 288 290 291 287 286 281 281 283 283 276 280 284 288 287 289 292 293 291 286 286 288 286 289 285 278 272 269 267 275 278 275 276 278 277 277 278 284 285 291 289 286 286 288 287 287 288 287 283 284 284 285
316 316 316 316 315 315 313 313 314 313 310 305 297 290 282 281 287 286 287 291 289 287 287 290 290 288 287 285 285 291 290 286 289 289 288 288 286 286 287 290 290 288 283 284 282 278 283 282 280 289 287 291 291 289 288 285 285 285 284 284 280 283 279 279 272 270 270 270 272 273 280 280 284 285 286 285 285 287 287 288 286 290 288 285 285 286 286 287
313 312 316 312 312 313 314 314 314 313 308 300 292 285 283 287 285 292 290 295 291 289 287 288 285 285 284 285 284 289 292 288 288 288 286 287 287 288 289 288 291 292 288 285 283 280 280 278 283 286 287 289 290 288 289 288 285 284 286 284 285 283 282 272 273 272 272 270 278 273 280 283 284 289 291 293 290 289 287 287 287 289 287 284 287 286 285 287
310 313 308 311 312 314 314 314 314 311 306 298 290 284 289 290 295 294 298 295 294 292 289 287 285 286 284 284 285 286 288 289 288 288 286 287 287 288 286 288 290 292 294 291 284 286 283 280 284 285 287 286 285 286 286 286 286 285 281 285 285 285 284 282 277 271 271 274 276 276 280 282 280 284 282 285 286 290 289 291 291 287 284 285 289 287 286 287
309 308 308 309 313 315 314 314 313 309 303 296 287 290 293 290 297 296 295 292 292 294 290 291 286 290 284 286 285 286 287 288 286 286 285 288 286 292 290 287 290 294 295 290 288 286 288 283 283 282 284 287 285 289 289 287 287 286 283 287 288 281 279 280 275 275 269 271 274 275 276 280 283 286 285 286 285 287 289 290 288 291 290 289 287 286 285 285
310 307 301 308 315 315 314 314 311 305 299 291 287 287 293 294 298 296 295 296 295 294 292 292 289 289 289 286 285 286 289 285 287 286 284 285 285 289 292 293 289 293 295 294 289 285 288 283 281 284 284 286 286 288 284 284 288 287 288 287 285 283 277 277 282 274 276 271 268 276 273 284 284 284 285 290 289 288 289 286 289 291 291 288 286 286 286 286
305 300 297 311 315 315 314 312 306 301 296 287 288 289 295 293 296 297 296 297 294 294 293 293 291 287 288 287 288 286 288 288 287 287 287 286 288 289 291 294 291 288 292 295 293 292 286 285 280 282 285 285 284 285 286 287 285 284 284 283 285 280 283 281 280 277 277 267 268 272 279 285 284 286 286 290 289 289 289 290 290 290 289 287 286 286 286 286
307 299 299 311 314 315 312 306 299 294 293 293 294 292 294 293 296 297 299 298 297 299 294 294 293 291 290 288 286 288 288 288 286 286 287 286 288 285 291 293 291 289 290 292 293 291 284 283 283 282 282 283 283 283 286 289 291 289 289 286 288 283 281 278 279 280 273 276 278 269 280 287 286 284 289 288 289 289 288 287 289 289 287 287 285 285 286 286
301 293 297 311 314 313 305 295 295 299 294 288 288 293 292 299 293 295 297 298 297 296 298 294 292 293 290 290 291 289 288 287 287 286 286 288 290 291 288 294 294 294 293 288 291 295 292 284 284 280 283 285 284 286 283 284 285 286 286 285 289 287 286 281 278 279 275 280 277 275 269 285 287 286 285 285 284 286 285 285 289 288 288 286 285 285 286 287
298 297 306 311 314 310 301 294 296 295 291 292 298 296 296 295 295 294 296 297 296 297 295 295 294 294 293 292 290 290 292 289 290 287 288 289 290 293 289 293 293 293 295 288 290 287 293 287 285 285 284 282 283 283 284 282 286 286 284 280 286 287 288 288 285 282 283 276 277 273 274 286 287 283 281 281 281 281 282 282 286 287 288 286 284 284 285 285
300 300 302 310 313 310 298 289 288 290 291 294 294 294 297 295 294 294 295 297 296 295 295 294 294 296 294 292 292 291 294 288 292 291 289 290 288 289 290 291 294 292 294 290 291 293 288 286 288 284 278 279 280 283 284 285 286 282 282 285 289 290 288 281 280 278 278 281 284 281 278 285 285 280 280 283 282 284 284 284 284 286 287 286 284 284 284 284
298 298 299 303 309 307 295 297 293 289 288 288 291 290 292 294 296 297 296 295 298 295 295 295 297 294 295 295 294 294 295 294 289 292 293 289 291 290 288 292 294 292 293 293 296 297 291 288 287 283 280 278 278 278 281 282 283 284 278 285 286 288 286 285 284 281 281 285 284 283 284 287 285 283 288 284 284 285 285 284 283 285 287 286 285 284 284 284
294 288 295 298 303 302 301 302 298 293 289 288 287 289 292 291 294 296 298 296 298 298 298 295 295 297 295 294 292 292 292 295 294 288 291 289 290 289 290 292 294 295 295 296 295 296 285 287 290 289 287 285 287 285 284 287 283 283 285 286 286 288 289 289 288 283 282 284 282 287 288 289 286 286 286 285 283 287 288 286 287 286 286 285 284 284 284 285
296 290 292 288 298 298 296 299 296 296 290 292 285 289 287 290 293 293 298 293 298 297 296 297 294 294 293 294 293 293 293 292 294 291 290 292 290 289 291 292 293 294 295 294 296 290 284 286 289 290 289 290 291 285 286 290 287 288 287 286 288 287 288 287 286 285 288 282 281 288 289 287 290 289 286 286 286 285 286 287 287 286 288 289 287 283 286 283
287 290 295 296 290 287 291 292 297 295 295 294 287 291 287 288 290 288 294 297 297 298 294 294 296 297 296 294 294 290 291 291 291 290 293 290 290 290 290 292 292 293 294 293 294 292 288 287 290 289 289 290 290 284 287 289 289 289 288 288 286 287 287 285 287 289 287 286 285 288 287 288 290 293 293 291 289 291 293 294 293 292 292 288 283 284 284 284
293 292 291 295 289 291 294 295 297 296 294 292 289 289 286 287 287 291 291 291 293 292 296 289 292 295 296 297 295 291 292 287 288 292 291 288 288 287 287 290 291 290 293 290 291 288 289 288 290 289 288 289 289 286 286 287 286 286 287 288 288 287 287 288 288 290 289 289 290 290 286 288 292 294 293 293 293 296 296 291 288 289 291 287 285 285 285 285
288 290 287 293 291 291 291 291 292 293 291 293 287 287 289 288 287 290 293 292 288 291 297 293 294 295 296 296 295 292 293 294 294 290 293 292 287 286 288 289 285 286 289 290 289 287 289 288 292 287 287 287 289 286 286 286 285 285 285 287 288 288 288 288 289 289 289 289 291 290 289 289 295 292 291 291 292 291 290 289 292 291 288 287 287 287 287 287
295 294 295 288 286 287 290 291 290 290 289 291 288 288 289 289 289 292 291 295 292 290 294 293 295 295 294 295 295 295 298 297 296 295 294 294 291 293 292 288 290 286 287 284 285 287 290 286 287 287 285 286 289 286 285 283 283 285 286 286 286 286 285 287 286 289 288 287 289 288 287 288 289 293 291 291 290 292 294 295 293 290 288 287 287 288 288 288
296 294 294 292 286 291 288 288 289 290 285 290 291 289 288 288 291 292 288 293 295 296 296 296 296 294 292 292 293 296 299 299 297 295 296 298 299 294 296 291 294 291 287 288 287 287 287 287 286 286 285 285 288 287 284 283 284 283 285 288 289 288 289 289 290 290 291 291 288 286 288 294 293 288 291 289 291 293 293 293 294 292 289 288 288 289 290 289
Wind_Speed
4 2 2 3 2 0 2 2 4 4 5 6 6 6 7 7 8 9 9 9 10 10 10 11 11 11 12 12 12 12 11 2 4 1 1 1 2 2 2 3 4 5 4 3 6 3 1 5 5 9 3 4 3 1 1 3 1 1 2 6 1 2 3 5 7 9 2 3 4 3 3 4 2 0 1 0 5 2 1 1 4 2 0 2 2 2 3 1
4 4 4 3 1 1 1 2 3 4 5 5 6 6 7 7 7 8 9 10 10 10 10 11 11 12 12 12 12 11 5 3 3 1 2 2 4 3 3 4 5 8 1 6 5 3 2 3 3 6 4 1 2 1 1 1 2 5 2 3 6 5 4 6 4 6 2 0 3 3 0 3 3 5 2 1 1 1 0 1 2 3 3 1 0 3 2 3
4 4 2 2 1 0 1 2 3 3 4 5 5 6 7 8 8 9 9 10 10 10 11 11 12 12 13 13 13 8 2 2 1 1 1 6 5 4 4 5 6 8 4 1 0 4 1 1 0 1 4 2 7 1 4 2 2 1 3 1 1 7 2 4 4 4 2 3 4 4 1 1 1 1 1 1 2 0 4 4 1 2 5 5 2 0 3 4
4 4 3 2 1 0 1 2 4 4 5 5 6 6 7 7 8 8 9 9 10 10 11 12 12 13 13 13 11 4 1 4 0 1 1 6 5 4 4 5 5 3 3 6 3 3 4 6 6 3 1 6 3 2 3 3 1 0 2 3 2 4 1 2 5 4 4 2 3 3 1 1 1 2 1 3 2 4 6 7 8 10 9 8 5 3 4 5
5 3 2 2 1 0 2 2 3 4 4 4 5 6 7 7 8 8 9 9 10 11 11 12 12 13 13 12 9 1 4 3 2 0 2 6 6 4 4 4 4 4 4 5 4 5 7 4 1 4 3 0 4 3 1 2 2 3 1 1 1 1 0 1 4 3 4 2 5 2 5 3 1 1 1 6 6 7 7 6 9 6 6 9 10 7 4 6
3 3 2 2 1 0 1 3 3 3 4 5 6 6 7 7 7 8 9 9 10 10 12 12 12 13 12 8 2 1 3 1 1 1 7 6 5 3 3 2 6 4 4 6 1 3 2 4 3 2 2 3 3 3 2 0 1 1 1 0 3 1 0 1 2 4 5 3 4 4 2 3 2 1 1 5 8 5 3 3 4 5 5 6 4 6 6 7
3 3 2 2 1 1 2 3 3 3 4 5 6 7 7 8 8 8 9 9 10 10 12 12 12 13 12 2 2 7 2 3 1 2 7 6 4 3 3 7 6 6 3 2 4 1 3 3 4 1 3 2 1 1 0 3 3 6 2 0 0 2 1 2 1 4 1 8 3 2 1 2 2 4 1 3 8 4 3 3 4 4 3 6 9 6 8 8
4 3 3 2 1 2 3 4 3 3 4 5 6 7 7 8 8 8 9 9 10 10 11 12 12 12 8 1 1 3 2 1 2 2 7 6 5 6 1 4 5 5 9 4 0 1 1 4 3 3 6 3 1 2 3 0 6 2 1 1 0 1 2 2 1 2 0 0 1 2 1 1 4 2 1 7 9 2 1 2 3 4 5 4 6 6 5 5
7 5 3 1 1 2 3 3 3 3 4 5 7 7 8 8 10 10 9 8 9 9 10 11 11 11 2 2 3 1 2 1 3 5 5 5 5 8 5 1 5 7 4 3 3 3 2 1 1 4 1 1 1 2 4 1 2 0 0 1 1 0 4 1 1 0 1 1 1 1 3 2 2 3 5 12 4 1 2 4 3 5 6 6 6 6 6 6
6 7 5 3 2 2 3 3 4 4 4 5 7 7 7 9 10 10 9 8 8 8 9 10 11 8 2 2 3 1 2 2 4 3 4 1 5 8 10 2 3 4 2 4 3 4 2 3 2 5 8 4 1 2 1 3 0 2 1 1 1 1 3 2 1 1 1 0 0 2 2 0 3 2 9 1 2 3 4 3 1 5 7 5 5 4 4 5
6 6 5 7 7 4 3 4 3 4 5 6 6 7 8 8 9 10 10 8 7 7 8 9 11 4 1 2 4 4 1 2 1 4 4 3 8 8 3 5 2 4 6 3 4 0 2 5 3 3 1 1 2 1 2 0 2 3 1 0 1 7 1 1 1 2 0 2 3 3 3 1 2 2 12 1 2 2 5 3 3 3 5 4 4 4 3 3
7 6 6 5 6 4 3 3 3 4 5 6 7 7 8 8 9 10 9 7 6 7 7 7 6 1 3 5 4 3 1 2 2 2 3 3 5 2 4 2 2 3 2 2 1 0 1 4 3 2 1 0 1 0 1 1 2 0 0 0 3 6 3 0 4 1 1 2 3 4 1 3 1 8 8 1 1 1 4 5 4 4 4 4 3 3 3 5
8 7 7 6 6 3 3 3 3 4 5 7 7 7 8 9 9 10 9 7 7 7 6 6 4 1 1 1 5 6 2 1 1 2 4 5 5 3 4 4 5 4 2 4 1 0 2 5 3 7 0 3 2 0 1 4 2 0 5 1 4 6 4 2 0 1 4 1 4 2 5 7 10 16 2 0 5 3 2 4 4 4 4 4 4 4 4 4
9 8 7 5 4 3 4 4 4 4 6 7 7 7 8 9 10 9 8 7 9 6 6 4 3 1 2 2 3 2 2 1 2 5 1 1 4 2 3 3 5 4 3 7 2 2 2 1 5 6 2 3 1 0 3 3 4 2 1 4 1 3 4 2 0 1 4 1 3 1 4 8 7 8 4 2 5 8 7 7 5 5 5 5 5 5 6 7
11 10 7 7 6 5 4 4 5 5 5 8 8 8 9 10 9 8 8 8 7 7 5 3 2 1 1 4 3 7 2 1 2 0 1 1 4 2 1 4 6 5 3 4 3 1 3 3 3 4 1 1 1 1 2 3 4 2 1 3 3 3 5 7 2 5 4 1 0 3 4 11 10 10 3 1 4 5 8 6 6 7 6 6 5 6 7 7
12 11 10 9 8 6 5 5 5 6 6 7 8 8 8 9 8 9 9 8 8 4 1 0 4 5 4 1 1 1 2 1 1 1 1 2 1 2 2 5 1 5 3 3 3 2 5 8 8 1 1 1 7 6 4 2 2 5 1 3 0 1 4 8 1 1 3 1 1 5 7 4 5 3 3 0 4 4 5 6 6 8 8 8 7 7 6 6
11 11 10 9 9 8 5 5 4 5 6 7 9 9 9 8 8 10 7 3 3 1 0 1 0 1 0 2 0 1 3 1 2 1 2 3 2 6 4 4 3 2 4 2 8 3 6 6 3 1 5 4 3 5 2 3 5 3 2 3 3 2 1 2 6 0 1 1 4 2 3 8 5 4 1 1 4 4 6 9 9 8 8 8 6 7 8 8
11 11 10 10 10 8 6 5 5 5 6 7 9 8 7 9 7 5 3 3 1 2 2 1 2 2 5 2 2 3 0 0 1 3 3 2 4 4 4 3 0 5 4 1 4 2 3 1 4 2 1 3 1 4 3 5 6 2 1 1 5 1 2 5 1 0 2 1 3 1 5 12 13 12 6 5 5 6 10 11 9 7 7 8 9 8 10 10
12 11 11 11 10 9 7 5 5 5 6 7 9 9 6 3 1 1 4 3 1 2 1 3 3 5 3 5 1 3 1 1 1 2 1 1 2 4 5 4 4 4 1 2 2 1 3 3 4 4 3 1 6 8 9 9 5 2 7 5 3 2 2 3 6 3 4 2 4 5 9 11 12 13 13 4 5 8 10 6 8 9 8 8 9 10 10 12
12 12 12 11 10 9 8 6 5 4 3 4 5 3 2 1 3 1 4 1 3 3 1 3 1 1 1 3 2 1 2 2 5 3 1 2 2 4 6 2 4 6 4 3 1 1 1 3 4 7 9 10 6 10 6 3 5 5 3 2 3 3 5 4 4 5 1 0 8 10 9 8 10 11 13 4 4 5 8 10 11 11 10 10 10 12 14 12
12 12 12 11 10 9 8 7 5 3 4 3 2 1 2 5 4 3 3 6 3 2 0 2 1 0 0 0 1 3 4 1 2 0 1 1 1 6 1 2 2 1 0 1 4 1 3 2 7 11 11 6 7 3 5 4 3 1 2 1 5 2 8 4 1 1 1 3 3 2 5 9 13 12 14 2 2 9 11 12 13 15 13 11 13 15 14 12
12 12 12 12 11 10 9 8 6 4 4 2 1 1 1 2 0 0 2 3 3 8 7 3 1 1 2 3 2 2 4 2 1 0 1 1 3 7 2 4 3 8 0 2 2 2 1 8 11 11 3 4 2 5 2 4 2 2 3 2 1 7 5 9 5 2 2 1 9 5 10 12 10 11 12 10 12 9 9 12 15 15 13 12 13 15 12 5
13 12 13 12 12 11 10 9 6 6 2 2 2 2 3 3 1 1 1 2 4 1 4 4 4 5 4 3 1 0 1 3 7 4 4 1 2 2 6 4 4 3 2 4 8 4 1 5 17 3 5 4 2 3 4 2 1 3 1 1 8 3 1 6 1 3 0 4 3 1 7 10 7 10 15 16 14 8 8 12 16 13 12 13 17 14 10 11
14 13 13 13 13 12 11 9 6 3 3 3 2 5 2 1 1 1 0 2 3 4 3 4 6 3 6 4 4 5 3 3 3 6 4 5 9 3 5 5 5 4 8 9 10 11 11 2 3 7 6 6 4 2 5 5 5 3 5 5 4 3 6 7 5 3 1 1 2 4 9 10 8 12 10 8 3 5 14 12 12 13 12 15 8 5 10 13
14 14 14 13 12 12 10 9 3 3 3 3 7 6 4 2 3 3 0 3 1 4 1 1 4 3 5 2 2 6 2 1 5 2 4 8 6 4 4 1 5 6 4 5 1 3 9 7 3 4 3 3 4 3 6 8 5 3 6 11 9 6 6 4 3 4 7 5 3 3 6 5 5 8 12 6 5 5 6 5 14 17 14 10 12 15 6 7
15 15 15 14 14 12 12 4 3 5 6 7 2 4 8 4 0 2 4 3 5 3 3 6 4 5 6 2 4 4 4 4 3 4 6 5 2 4 2 1 2 8 6 5 6 4 6 0 5 4 5 5 4 4 4 6 7 1 5 8 11 7 2 1 1 3 3 3 2 2 1 11 2 5 7 5 3 10 8 6 13 12 13 7 11 10 8 9
16 16 16 16 16 15 7 5 3 8 4 6 6 4 3 4 1 1 1 3 5 5 7 2 2 2 0 3 8 4 3 7 0 3 4 3 6 1 6 5 3 3 3 3 3 7 3 1 3 3 4 4 5 4 5 12 6 4 2 3 4 3 5 5 3 5 6 1 4 1 2 7 16 7 6 8 8 9 8 14 14 15 13 8 8 7 7 9
18 18 17 17 18 16 2 3 8 9 4 1 2 7 5 5 3 1 4 1 5 3 2 2 2 2 2 3 11 11 2 2 5 3 1 1 2 2 2 8 10 10 4 5 10 2 6 5 5 4 2 4 8 6 4 9 7 3 1 6 4 5 4 3 3 3 0 3 9 1 0 2 8 3 3 2 3 6 12 14 16 15 9 6 8 9 9 10
19 19 18 18 19 17 2 4 4 8 2 1 5 7 6 6 2 5 4 3 2 2 2 4 5 2 2 3 5 2 2 4 1 1 2 3 4 2 3 5 4 5 4 9 12 1 2 4 9 9 7 8 5 1 7 12 5 1 5 7 7 7 6 3 3 3 1 1 8 6 5 3 19 3 3 4 2 7 11 14 16 13 6 5 7 7 7 5
19 19 20 19 15 12 5 1 2 2 3 4 6 7 8 4 3 2 3 7 1 3 0 0 1 5 4 12 5 1 3 2 2 1 3 4 1 3 1 3 4 3 4 4 3 5 0 4 3 4 7 4 5 2 1 2 2 7 4 7 5 8 4 3 6 2 2 4 10 9 10 6 12 2 8 8 8 10 11 8 8 7 5 6 7 6 3 4
20 21 21 21 11 8 6 7 8 1 3 5 6 9 6 4 4 4 7 6 2 1 2 1 2 4 11 13 7 2 3 1 1 6 3 0 0 3 1 4 4 4 1 3 7 3 0 1 1 1 3 4 4 4 4 2 3 5 2 3 4 2 6 2 4 4 1 9 1 2 8 8 12 4 6 7 4 3 7 8 10 9 7 6 4 4 3 3
20 22 23 18 9 10 14 8 10 6 4 7 8 8 7 4 5 7 6 4 1 5 8 5 0 5 10 2 4 11 9 2 2 6 11 8 8 10 11 12 8 4 4 10 9 3 4 6 2 2 4 9 3 7 4 3 1 3 5 7 6 4 5 3 2 2 5 9 1 2 1 4 18 13 4 6 10 8 8 10 11 10 10 7 5 4 2 3
16 19 24 17 11 10 9 6 12 10 6 6 7 2 6 7 11 9 8 5 4 4 4 4 6 8 9 6 6 4 2 9 1 3 4 0 7 10 4 5 7 6 9 3 6 1 8 1 1 3 2 4 8 8 3 1 4 4 8 7 6 0 1 5 4 2 7 7 3 0 1 9 2 8 13 19 17 14 8 10 10 10 11 9 2 1 3 4
8 15 13 14 13 10 7 9 10 12 9 6 5 7 4 6 9 13 19 11 4 2 5 3 5 2 13 10 5 10 4 3 9 5 5 6 7 9 9 9 4 3 5 2 9 9 5 7 7 8 5 6 10 13 13 7 10 10 2 11 10 9 7 4 5 6 9 5 2 5 1 8 4 4 2 10 5 5 6 8 5 7 8 6 3 2 3 4
2 7 10 9 10 5 8 11 14 17 11 10 7 8 13 13 6 12 14 12 1 2 3 1 8 7 5 3 2 6 3 3 4 5 4 8 9 7 9 12 9 4 2 4 4 3 11 8 5 6 2 9 14 2 7 6 3 3 2 5 3 9 6 6 5 3 1 3 5 2 7 4 6 3 7 5 5 7 6 8 5 12 7 3 5 6 5 6
0 3 6 6 10 9 10 9 12 15 15 14 11 11 15 13 13 9 7 5 1 5 5 5 4 4 4 3 3 9 2 2 5 5 3 6 3 9 7 5 13 17 10 11 4 4 2 6 1 4 4 6 5 2 3 4 8 4 6 7 5 2 6 4 3 2 1 2 12 3 10 6 8 10 12 13 8 11 4 5 7 11 7 4 8 6 5 6
4 3 4 4 10 10 12 13 13 11 8 16 15 15 14 9 9 3 2 10 8 14 7 10 6 9 8 8 5 6 6 5 3 6 7 3 5 7 5 8 5 11 15 10 1 3 8 6 1 4 5 1 0 0 3 4 3 9 4 8 2 2 3 4 6 2 4 4 9 3 9 8 3 15 3 1 5 13 8 12 12 6 5 6 10 5 5 7
3 3 3 6 8 12 13 13 17 13 10 10 13 16 6 13 6 5 0 5 6 8 8 13 3 9 5 10 9 8 3 7 7 5 5 7 7 7 9 3 7 14 18 3 6 3 3 7 1 2 0 3 2 1 2 1 2 5 5 5 8 4 3 2 4 5 1 5 8 5 2 9 10 13 1 2 3 7 10 11 6 10 8 10 6 6 6 5
3 1 5 9 11 14 13 14 14 16 11 13 11 10 4 11 6 1 4 4 2 8 13 9 7 6 7 10 4 4 11 10 10 10 7 4 6 6 16 11 6 13 14 10 6 2 1 5 3 1 2 1 0 4 9 4 1 1 3 4 1 3 1 6 7 3 5 5 2 9 5 15 6 7 8 10 11 9 6 5 9 10 10 3 4 5 7 7
4 2 7 4 16 16 15 14 12 12 11 15 12 12 4 9 6 6 5 6 4 8 8 9 5 4 5 6 10 9 8 6 12 11 8 4 10 2 8 11 6 4 10 16 10 4 3 2 7 1 3 2 4 6 11 14 11 1 2 4 1 0 2 4 1 4 3 4 3 3 11 13 4 7 9 9 9 9 9 9 8 8 4 3 4 5 6 7
2 3 2 6 13 13 15 13 13 17 14 7 10 10 7 7 5 8 10 5 2 2 4 6 8 11 8 7 4 3 7 9 6 7 7 4 10 5 8 9 7 6 5 6 10 4 2 2 8 2 0 8 6 3 4 7 12 14 16 14 16 11 5 4 7 2 2 3 7 6 14 14 2 3 8 7 7 9 7 5 7 7 4 5 4 5 6 6
4 6 3 7 13 17 15 14 7 8 8 11 14 12 7 6 3 5 6 3 1 3 2 0 3 6 6 9 9 8 6 7 7 7 6 11 10 10 2 12 11 16 14 10 15 14 8 3 4 6 8 9 4 0 1 1 1 1 2 6 7 7 6 5 6 7 0 4 4 3 2 18 5 6 5 4 4 4 4 3 9 6 7 4 4 6 6 6
5 9 3 11 15 18 12 11 8 9 8 8 2 1 0 1 9 2 7 3 5 4 1 5 6 7 5 5 5 6 12 6 13 11 5 9 9 14 5 14 10 14 11 1 2 2 6 3 3 5 1 3 3 3 2 1 1 2 1 1 6 10 12 12 7 4 8 2 3 1 1 19 0 1 2 3 3 4 4 4 7 7 8 5 4 5 6 5
2 4 0 4 15 13 12 11 10 11 7 7 7 7 6 3 4 6 8 12 9 5 9 3 2 4 4 3 4 10 11 6 7 13 10 7 7 3 10 10 16 10 12 10 12 10 5 5 10 3 2 2 3 2 2 1 1 2 3 5 10 10 6 1 6 2 4 11 13 10 12 17 2 3 2 1 2 3 5 6 7 9 8 4 5 5 4 4
3 2 2 3 8 12 13 9 8 8 10 10 9 13 10 7 5 11 9 8 5 4 3 6 6 2 2 1 6 5 11 16 4 12 11 5 6 1 3 12 15 11 9 2 3 12 8 7 10 9 14 13 11 12 15 11 11 5 3 6 6 11 11 6 8 5 8 11 12 9 15 7 1 2 2 2 1 5 5 6 5 9 8 5 4 4 4 5
3 5 2 5 8 9 10 6 8 7 7 8 8 8 11 11 3 6 8 8 8 7 7 2 1 3 4 3 3 6 9 12 13 1 9 5 3 1 3 8 13 11 8 8 8 10 3 4 13 16 17 18 17 2 4 13 5 8 11 13 13 13 14 13 7 4 17 7 9 19 23 13 4 2 5 5 2 6 5 4 8 8 7 7 5 4 4 6
3 5 5 4 5 12 10 11 9 9 10 9 7 5 12 14 9 0 9 5 7 11 7 10 2 6 4 6 9 9 8 8 8 1 5 9 2 1 3 4 6 5 5 4 4 6 2 3 11 17 19 19 15 6 7 18 17 20 18 15 18 17 18 17 16 21 10 10 14 21 14 11 22 10 6 6 6 5 6 9 9 4 6 7 5 2 3 4
6 4 3 2 2 4 11 10 13 13 10 14 5 3 8 12 12 7 2 12 4 7 8 1 8 12 12 16 10 8 7 8 8 11 8 3 2 0 1 0 4 6 6 2 4 5 6 8 10 11 16 19 14 5 10 10 15 16 19 19 20 20 16 20 25 22 11 16 23 14 9 15 22 19 12 9 7 7 11 10 7 7 7 3 1 3 4 6
4 2 2 1 1 2 4 2 7 13 14 15 6 10 7 10 12 12 5 3 7 3 12 9 14 19 18 15 12 10 9 6 9 12 10 7 8 4 2 1 4 3 7 5 5 3 5 9 10 10 15 16 15 7 7 13 5 5 13 18 19 21 24 27 27 22 16 16 18 12 8 14 22 12 9 9 9 13 12 4 3 5 8 5 4 5 6 7
5 5 3 0 2 6 4 2 0 5 10 11 10 11 13 15 16 11 6 6 4 9 7 17 18 16 17 16 16 15 15 17 15 12 8 10 4 4 7 8 5 0 4 8 5 3 5 10 9 2 5 13 15 6 6 10 6 7 7 10 17 22 26 26 22 17 15 17 21 16 12 21 20 4 6 6 9 6 6 6 10 8 6 6 6 7 9 9
2 0 1 1 3 3 3 5 5 5 6 7 8 4 7 10 16 13 12 11 14 9 9 17 20 13 7 12 13 16 16 16 17 12 5 12 15 11 11 5 7 6 6 3 2 0 5 4 3 4 8 13 13 9 8 4 5 6 8 12 18 21 18 17 15 16 13 20 19 13 16 24 2 7 5 7 6 9 13 14 9 9 8 6 9 10 10 10
3 0 2 2 5 3 5 1 3 6 9 4 7 9 10 16 13 10 5 5 8 9 7 12 14 10 9 9 13 17 19 11 4 0 2 6 7 1 7 5 11 12 9 9 3 8 9 6 5 6 11 14 13 9 8 6 2 5 13 23 27 17 16 12 17 17 21 20 16 17 24 24 10 3 6 5 8 11 12 10 13 11 8 10 11 11 11 11
Wind_Direction
185 184 209 206 169 330 337 356 6 10 14 15 13 12 9 3 4 7 7 7 5 6 358 353 355 349 346 348 346 345 341 92 33 39 70 257 340 256 326 349 343 343 36 61 26 55 336 12 5 341 32 52 318 43 293 51 46 56 67 114 97 197 150 203 175 185 198 125 227 212 204 116 158 121 201 251 29 59 342 55 310 317 299 226 262 311 269 252
180 195 195 181 186 334 347 357 1 351 7 11 9 8 12 7 5 4 6 2 2 358 355 351 349 350 347 344 345 340 5 67 61 65 229 1 348 3 10 17 2 353 48 41 63 75 83 339 335 31 52 49 328 307 22 343 75 87 127 88 201 175 230 158 197 191 117 276 179 199 117 154 199 140 218 99 285 3 95 294 22 329 305 330 354 343 105 159
191 201 194 211 175 308 332 350 4 359 6 7 4 5 8 8 6 4 1 0 357 354 353 349 348 346 347 342 336 343 339 21 41 336 335 344 358 4 27 38 33 20 51 119 204 120 97 194 304 76 10 100 5 287 32 335 45 191 114 156 258 204 237 206 166 197 209 134 136 167 210 144 230 138 129 223 170 26 212 214 312 271 243 229 259 11 142 159
185 205 210 207 175 267 8 4 8 0 6 6 0 5 5 6 4 1 359 357 354 353 350 351 347 346 343 340 340 326 60 65 2 261 314 338 353 13 41 50 52 40 69 56 136 107 114 80 56 79 42 61 312 34 51 317 47 204 68 156 208 185 108 224 176 222 206 167 145 142 122 121 261 212 160 163 105 258 262 228 182 205 218 206 213 203 183 164
188 197 215 228 196 53 10 353 358 358 354 2 9 5 5 5 7 358 357 355 354 351 351 348 347 343 340 342 337 314 67 54 243 267 298 341 356 353 49 71 89 52 97 142 85 52 69 74 79 38 71 272 0 13 37 334 91 90 69 189 181 151 35 200 190 173 145 134 107 118 129 217 92 63 129 150 190 233 212 236 215 219 199 175 187 199 176 177
193 207 217 223 226 279 324 343 9 360 352 1 9 7 3 2 6 358 355 355 354 349 349 349 345 340 339 344 2 61 77 66 266 349 337 344 335 0 43 41 98 107 95 53 99 27 86 357 64 24 9 61 334 83 307 240 316 68 336 317 201 218 167 316 144 188 123 130 139 139 217 90 142 229 195 178 209 232 218 257 244 226 209 182 130 144 173 181
195 215 209 211 221 265 326 9 355 351 354 11 9 5 358 2 356 359 353 354 353 348 348 347 343 340 334 13 31 81 92 269 23 281 354 336 317 19 48 44 77 63 71 64 16 70 31 72 74 170 95 70 296 88 353 305 20 104 154 323 257 177 261 34 22 106 115 129 200 203 62 157 133 233 114 215 243 229 262 272 247 224 160 140 150 178 180 185
199 214 215 200 229 302 313 0 5 318 351 6 10 1 2 1 358 353 353 348 350 348 348 345 343 339 351 55 58 12 42 260 282 313 339 329 0 340 63 33 56 65 59 69 73 84 111 41 128 161 61 132 207 117 323 64 23 75 55 206 248 124 255 312 92 82 75 167 351 107 136 254 181 190 46 248 245 244 23 78 92 111 121 133 149 171 172 179
187 193 223 200 224 284 321 327 349 342 337 343 356 360 360 359 356 353 351 346 347 347 345 346 342 340 316 80 103 78 279 244 217 306 348 11 349 30 89 10 16 81 128 64 17 147 132 250 125 195 229 123 186 83 341 122 327 130 208 146 340 30 323 323 5 47 42 333 98 100 265 294 263 284 255 246 259 198 116 75 98 119 132 162 175 178 177 184
196 190 196 212 242 299 308 311 315 333 336 333 335 351 354 354 353 350 345 345 341 343 343 345 347 333 43 82 49 67 260 274 299 322 346 7 29 51 46 87 61 78 68 338 31 49 74 205 135 168 123 82 100 69 279 59 219 131 124 86 101 318 352 30 190 357 15 272 300 191 273 264 338 94 273 347 215 134 91 99 97 148 166 178 180 190 200 182
203 219 212 195 200 188 276 298 297 314 335 333 333 339 348 346 347 346 343 336 339 336 343 346 349 357 58 76 105 209 220 47 0 346 348 60 60 56 22 357 76 71 98 25 64 191 100 136 151 131 47 221 111 336 71 222 147 40 116 84 30 339 296 240 0 280 9 285 157 181 251 307 317 86 240 219 146 175 137 155 164 176 183 192 202 199 207 208
205 211 222 224 187 210 282 287 295 312 320 321 323 328 339 339 343 342 343 333 330 334 337 344 8 81 79 68 135 209 272 246 339 5 10 74 70 119 181 25 79 143 129 113 355 290 209 149 111 57 207 156 50 80 56 158 73 251 165 316 298 357 354 318 207 295 162 248 149 163 335 274 184 229 241 287 130 144 151 176 199 207 216 225 229 224 217 216
208 210 216 222 218 242 267 285 310 303 319 330 323 334 333 334 335 338 330 333 322 331 333 355 15 67 96 11 239 238 281 276 67 58 46 56 102 68 78 63 83 92 141 127 155 236 148 125 107 80 265 99 154 81 190 71 342 330 35 91 335 1 331 315 263 31 143 246 140 165 281 254 236 239 235 194 145 114 151 208 216 226 231 237 234 227 238 243
201 208 214 226 238 237 261 271 288 302 322 338 340 332 329 329 328 328 329 310 323 319 336 14 54 69 83 236 270 241 281 167 99 80 30 307 71 10 30 25 66 62 45 95 101 142 95 73 94 116 134 82 122 285 45 341 18 149 259 65 84 11 277 296 81 190 149 175 167 77 228 275 268 273 272 233 167 166 202 217 218 225 235 231 227 230 230 236
188 190 194 203 220 225 238 260 272 291 308 321 337 329 329 324 320 321 321 314 301 318 344 66 3 55 53 269 263 297 222 113 57 266 343 110 115 53 11 15 35 29 80 95 126 89 118 87 68 41 31 271 43 71 4 23 6 16 46 293 326 150 277 296 237 168 161 348 17 121 279 256 270 269 301 269 183 181 218 216 224 227 227 229 229 229 233 235
187 187 188 197 208 213 216 243 263 273 286 310 325 320 317 318 320 318 312 303 300 360 342 115 3 100 99 317 175 47 57 127 198 297 301 122 102 138 174 107 32 30 45 21 76 110 50 82 70 158 202 19 56 93 49 25 337 354 79 271 271 70 266 336 19 259 346 103 350 176 233 328 305 279 321 215 173 202 228 246 236 233 232 230 228 227 232 241
181 186 187 190 202 208 208 218 244 268 291 307 313 315 312 307 322 316 311 345 359 300 67 175 140 110 145 248 115 297 234 246 318 46 20 10 120 150 96 42 22 23 13 51 22 56 357 62 284 19 35 105 125 97 70 358 317 301 22 215 203 192 260 265 307 103 276 126 205 265 226 240 247 263 331 213 181 184 230 244 242 233 231 228 232 230 228 227
187 184 184 189 198 202 206 204 213 248 273 296 311 310 307 312 337 3 29 32 353 67 72 115 121 63 286 353 241 233 11 281 56 148 54 307 107 76 91 94 61 72 44 30 357 68 334 62 34 171 8 13 68 69 126 229 201 219 186 311 295 278 209 251 327 251 122 8 203 272 241 265 270 280 252 215 185 192 226 231 241 241 236 232 229 232 231 229
190 186 184 188 194 198 189 197 208 238 266 323 324 304 276 308 40 115 64 0 71 13 61 206 151 156 207 228 3 42 123 222 116 68 168 101 26 93 64 75 76 98 22 71 259 98 347 71 33 40 228 156 209 175 179 214 148 196 168 181 169 194 231 201 237 278 181 209 235 223 227 246 261 267 276 210 196 196 237 265 270 254 242 236 230 234 231 228
187 186 189 187 189 189 191 192 209 233 317 349 351 1 35 35 10 345 340 17 228 176 176 240 230 176 73 13 140 283 282 49 128 323 279 283 117 55 38 64 34 65 103 177 319 76 56 128 167 201 221 213 204 194 199 152 135 96 91 113 204 220 281 279 266 256 207 335 232 231 239 248 262 263 263 263 167 230 254 257 252 248 240 233 234 232 231 227
187 185 183 183 181 183 182 182 203 227 87 69 330 27 156 173 115 271 240 252 231 158 199 9 236 159 301 179 281 163 124 338 65 176 202 119 135 106 261 54 38 108 352 180 136 314 62 107 244 224 223 199 209 163 99 96 60 132 112 175 279 155 255 233 242 29 305 171 294 275 258 255 254 264 265 275 148 237 231 241 249 249 237 233 231 236 230 229
188 184 178 179 176 177 180 176 199 195 119 112 38 104 25 214 171 199 121 291 265 240 205 221 8 310 349 230 261 153 70 80 41 163 291 141 167 151 268 109 149 181 196 106 45 54 112 199 236 228 111 111 78 146 143 156 150 67 196 201 324 267 251 275 267 324 275 116 262 288 273 261 255 258 269 261 239 240 229 223 240 239 241 235 234 237 234 199
185 185 181 176 176 176 176 180 190 163 102 145 195 151 215 233 268 193 100 117 275 296 198 180 238 242 272 292 279 102 147 176 190 222 210 102 87 191 143 115 149 118 94 153 164 153 276 282 244 164 137 111 53 93 122 94 79 155 113 144 236 230 23 299 312 10 67 176 272 332 295 276 268 256 254 253 237 243 245 242 246 243 243 238 233 228 221 218
186 182 182 179 173 174 172 178 165 143 214 200 179 195 230 154 147 68 58 268 282 298 196 222 189 169 198 153 209 132 158 240 111 202 262 133 151 179 118 160 128 124 184 185 181 176 199 216 329 150 154 162 157 126 123 147 231 257 189 204 237 210 229 191 255 311 267 357 56 324 280 275 222 251 261 264 303 253 257 252 258 258 238 246 266 257 215 215
184 182 179 176 171 165 173 141 175 197 137 213 252 236 230 170 71 14 66 333 352 290 236 328 160 217 201 41 100 157 242 341 225 211 172 137 138 113 210 163 109 203 182 191 145 260 273 254 86 93 147 143 114 144 194 153 234 288 230 201 217 216 237 276 346 6 2 335 352 54 326 288 262 235 250 282 329 297 267 253 257 256 251 239 242 242 225 223
184 182 177 173 165 161 136 157 218 141 156 210 204 209 224 196 36 32 92 78 278 262 23 239 145 257 134 197 110 158 77 256 217 202 141 204 112 135 89 142 131 210 192 143 186 212 213 58 159 167 145 171 169 180 228 160 206 217 273 201 213 217 206 239 274 67 301 247 312 29 284 290 205 246 240 265 255 259 281 260 263 264 258 236 236 239 220 210
181 181 178 171 165 146 142 226 139 122 151 257 207 193 185 151 133 306 100 5 305 196 166 260 125 252 47 194 142 109 167 253 35 96 127 267 175 350 144 184 47 17 133 155 27 262 119 217 98 79 113 144 168 214 238 177 148 239 250 150 174 163 198 224 166 187 238 263 294 40 117 274 291 255 227 221 236 262 291 279 266 258 256 241 240 236 221 209
183 180 179 174 168 164 147 122 140 170 188 228 179 142 134 144 115 92 81 52 269 106 139 227 220 359 88 191 160 162 213 156 114 230 15 268 83 2 104 190 173 175 179 109 211 279 152 184 168 157 148 150 200 208 185 159 149 219 260 131 141 167 183 122 149 186 232 27 290 306 171 281 256 274 348 123 222 267 255 255 259 260 263 258 244 233 223 211
183 180 179 179 172 175 146 133 180 197 211 47 109 121 117 124 109 105 129 176 251 82 287 92 278 53 8 90 177 64 138 357 146 318 310 54 29 147 190 212 168 164 205 183 214 233 305 166 204 170 153 208 217 263 167 162 189 236 127 91 84 80 67 113 102 105 321 43 260 195 181 189 277 187 140 346 184 232 238 243 252 260 270 254 254 248 232 222
186 181 178 177 169 180 189 99 189 254 96 110 120 119 119 109 93 113 78 241 107 232 73 223 147 199 140 151 195 24 136 347 60 95 41 153 241 34 32 149 112 114 216 307 300 211 271 291 184 137 196 195 123 39 169 179 128 135 99 76 27 42 38 29 66 86 36 260 253 190 200 158 279 177 183 157 205 196 226 261 274 274 289 268 251 253 240 211
189 184 179 172 185 176 136 212 194 126 124 125 133 128 118 33 137 134 211 222 36 155 51 171 183 87 149 152 179 303 83 83 140 152 131 77 84 48 147 37 43 63 31 342 273 348 304 21 156 247 94 110 98 76 18 75 127 124 102 124 69 347 10 33 341 40 114 268 312 308 200 181 222 285 271 241 277 239 208 226 251 273 267 262 272 266 235 182
195 188 179 181 169 144 179 208 156 135 148 158 141 147 138 139 344 190 226 66 280 203 167 193 230 159 173 165 125 177 166 36 176 172 162 178 167 166 207 179 154 125 274 215 250 38 267 223 234 331 208 135 112 83 7 30 344 85 91 87 119 247 35 294 25 260 197 235 183 338 136 331 241 246 245 267 258 256 216 221 236 253 271 260 268 264 218 169
211 193 184 185 163 191 187 125 140 147 143 186 139 92 143 148 202 212 252 163 244 129 239 83 169 161 162 139 202 163 52 173 180 190 97 83 156 224 239 200 206 146 203 205 211 53 269 318 246 220 71 234 145 152 172 60 218 133 155 148 110 174 224 263 273 272 306 292 271 30 81 253 311 281 226 241 239 234 228 231 237 243 257 271 282 255 188 186
230 208 193 189 190 188 159 136 130 131 148 165 146 109 45 172 216 194 213 211 210 350 76 103 98 59 158 173 201 152 174 244 155 204 164 163 171 203 230 244 189 263 86 98 173 186 244 300 244 137 244 176 184 203 182 158 161 203 96 161 184 150 158 206 201 225 239 233 278 281 77 233 125 243 262 248 278 291 261 252 252 263 258 277 293 240 192 188
346 233 211 198 194 171 153 152 150 147 153 142 140 178 173 202 207 200 221 214 251 58 38 129 126 131 218 338 306 198 119 196 189 121 182 148 203 208 188 206 218 132 154 150 249 81 213 236 266 214 319 157 190 213 110 95 64 215 169 66 88 223 135 236 210 173 286 336 333 215 213 190 189 274 293 254 281 283 260 275 288 269 259 267 272 234 204 201
156 248 205 197 196 170 149 152 153 158 157 149 158 186 206 186 202 188 226 149 88 127 140 51 68 134 212 198 340 195 277 116 198 127 223 214 229 199 209 197 193 191 161 193 157 169 53 272 291 319 52 180 186 113 176 143 201 207 110 204 208 164 114 84 47 45 76 47 258 126 283 277 300 274 237 251 251 258 290 288 254 254 270 293 269 252 209 208
195 136 218 182 208 162 164 157 153 167 191 169 168 201 203 224 222 149 242 177 182 133 141 144 224 164 178 209 191 191 223 78 179 153 217 134 289 212 212 235 183 194 209 165 283 195 153 237 309 95 217 307 137 197 101 22 142 100 192 230 149 128 104 142 227 1 68 211 273 116 249 293 52 282 1 57 226 256 258 257 251 263 247 254 251 256 227 219
169 188 230 223 187 163 165 165 157 171 181 198 205 201 190 222 211 182 97 100 92 159 165 197 238 153 202 171 207 181 220 173 191 185 205 178 240 198 183 198 203 192 205 185 181 263 148 272 303 288 158 303 0 126 44 344 24 147 196 193 129 232 241 297 92 259 229 251 275 298 261 260 192 251 53 302 225 248 244 248 276 271 253 241 262 252 238 228
190 157 259 211 155 162 172 167 172 170 191 191 198 238 218 234 214 192 200 159 177 163 199 208 178 218 159 193 163 159 163 187 172 193 154 219 218 191 187 173 219 203 192 176 205 223 75 189 288 343 136 300 18 125 200 189 355 45 72 122 27 98 162 134 194 180 128 263 35 289 42 275 162 222 188 226 209 215 235 261 247 247 253 269 245 235 228 220
212 195 245 152 162 163 161 171 177 190 193 200 192 222 173 221 215 232 257 178 210 178 221 200 191 133 180 204 158 162 219 196 164 194 195 206 205 293 186 191 165 166 172 182 199 123 216 146 253 320 316 105 189 202 205 166 171 154 120 194 174 39 243 110 27 138 179 179 185 274 303 263 242 197 180 209 203 211 198 219 238 245 239 228 223 218 223 220
222 233 276 158 155 151 155 173 193 192 198 216 222 226 195 213 195 215 226 258 298 295 187 220 174 198 172 151 242 217 174 178 181 186 201 228 189 241 201 171 136 140 130 170 207 172 156 148 214 142 267 222 241 258 219 197 192 175 179 194 183 141 151 158 248 63 129 147 236 170 248 269 254 171 199 191 215 195 222 205 258 263 255 248 237 229 217 218
219 234 226 153 144 147 159 194 199 186 197 194 205 196 211 200 27 207 202 212 216 276 14 199 244 199 161 198 177 180 147 180 189 189 231 211 216 217 254 173 164 147 144 173 198 204 174 151 104 196 213 208 215 249 266 239 17 234 187 232 173 177 150 171 198 222 60 255 87 190 79 271 162 188 201 192 228 215 200 174 253 274 276 263 231 223 228 216
219 240 5 154 156 152 171 204 192 203 206 231 356 103 84 215 213 155 189 189 218 187 256 227 203 193 236 181 177 164 168 198 179 203 201 223 239 208 201 177 149 163 151 78 54 352 101 141 187 258 10 314 320 314 22 103 108 307 311 127 141 186 193 199 205 166 177 162 181 244 187 262 348 245 261 215 223 269 275 199 245 271 272 268 234 224 220 218
252 249 213 233 172 162 178 208 200 206 218 244 223 238 211 226 175 189 205 199 196 168 211 205 324 241 228 149 144 184 181 214 213 203 225 212 248 202 145 173 156 174 166 201 174 180 145 232 202 161 355 344 342 341 315 356 63 214 169 210 200 201 183 91 90 70 189 209 192 162 232 258 207 315 282 331 333 286 253 243 210 248 262 238 230 222 212 198
291 286 244 211 191 177 207 189 210 192 209 216 202 214 211 225 213 219 206 211 210 224 184 231 203 167 204 179 182 181 194 202 187 216 217 207 227 35 260 173 185 182 208 208 159 167 186 159 168 192 212 221 229 215 217 196 193 196 235 199 204 177 177 151 214 196 218 234 157 206 243 243 24 307 291 300 346 293 275 247 244 224 257 265 244 219 205 185
204 248 172 200 221 205 210 211 201 180 198 210 216 223 217 226 233 214 194 230 202 217 223 50 26 149 204 155 159 186 206 222 221 163 198 224 242 237 215 184 189 196 200 113 150 151 178 192 191 197 206 221 227 242 69 108 89 195 216 189 200 204 197 198 202 156 219 214 162 221 226 237 260 228 251 264 255 233 255 292 243 238 247 253 248 225 195 193
313 241 180 246 192 216 207 193 205 189 204 173 222 156 213 220 221 271 192 237 200 209 215 220 178 188 203 203 207 214 204 208 233 193 197 206 206 166 31 168 221 258 113 81 155 93 66 243 209 210 216 227 239 213 193 150 179 203 199 200 203 194 194 193 196 219 188 94 238 239 224 247 253 225 226 240 252 275 267 254 261 257 250 243 231 194 187 200
225 249 245 254 241 218 197 210 193 202 196 180 205 159 208 212 215 224 172 226 220 204 209 159 207 218 207 205 205 220 183 213 187 218 223 238 126 332 97 44 191 185 144 155 215 168 166 208 215 211 229 234 234 178 188 189 189 196 202 199 197 199 192 200 215 220 144 203 226 243 144 222 249 242 215 209 198 218 231 239 231 241 270 291 120 188 206 213
234 323 276 315 228 290 250 344 203 207 197 175 178 170 191 193 213 212 196 181 218 242 204 223 219 218 218 214 208 218 205 192 231 219 211 193 194 136 193 351 257 143 175 160 184 206 146 239 220 197 222 234 235 200 183 198 216 215 207 204 199 193 201 207 216 214 199 225 241 245 182 228 239 244 198 206 203 236 250 271 299 263 247 230 210 229 232 226
198 203 251 223 224 274 287 327 158 221 246 182 192 193 198 192 206 204 204 189 209 220 196 222 227 219 217 214 208 215 211 213 216 219 211 201 224 192 210 191 156 130 173 197 163 294 178 234 219 154 227 242 239 206 185 205 194 211 230 219 209 206 208 209 214 218 217 246 245 249 268 266 259 161 192 196 213 247 289 262 237 241 241 221 217 229 236 234
277 139 17 76 292 238 246 237 252 263 243 203 212 186 209 205 219 203 212 199 200 191 193 218 229 234 226 223 222 228 228 221 224 227 199 182 213 202 187 245 146 147 182 131 103 324 174 266 66 119 227 249 240 191 209 187 220 220 220 221 223 213 212 212 214 214 201 221 236 248 252 249 80 164 147 192 194 221 239 249 245 236 228 221 221 230 235 238
243 248 100 86 265 188 245 203 201 220 232 213 208 185 188 205 209 182 242 231 224 224 198 217 235 231 239 229 226 227 234 242 266 161 203 215 249 15 195 176 169 164 182 191 125 161 184 173 178 173 221 237 243 164 175 149 81 262 244 231 220 208 205 205 218 211 209 207 218 223 234 242 229 159 173 214 200 229 241 246 252 246 221 214 220 227 232 237